Flag for U.S.A. Weather past 2 weeks in Stillwater, Minnesota, U.S.A.

Now
54 °F

Sunny.


Feels Like: 51 °F
Forecast: 47 / 70 °F
Wind: 9 mph from East

Location: St. Paul Downtown Holman Field

Current Time: May 5, 2015 at 8:26:46 AM

Latest Report: May 5, 2015 at 7:53 AM


Visibility: 10 mi

Pressure: 30.21 "Hg

Humidity: 59%

Dew point: 40 °F

Location of StillwaterLocation

Historic Weather in Stillwater — Graph

°F

Stillwater temperature yesterday

Maximum temperature yesterday: 70 °F (at 2:53 PM)
Minimum temperature yesterday: 50 °F (at 5:53 AM)
Average temperature yesterday: 61 °F

Past Weeks' High & Low Weather Summary

 TemperatureHumidityPressure
High82 °F (May 3, 3:53 PM)93% (May 3, 5:53 AM)30.25 "Hg (May 3, 5:53 AM)
Low28 °F (Apr 23, 6:53 AM)11% (Apr 23, 5:53 PM)29.51 "Hg (Apr 20, 6:53 AM)
Average52 °F49%29.95 "Hg
* Reported Apr 20 6:53 AM — May 5 6:53 AM, Stillwater, Weather by CustomWeather, © 2015

Note: Actual official high and low records may vary slightly from our data, if they occured in-between our weather recording intervals... More about our weather records

Advertising

Stillwater weather history for previous 24 hours

 ConditionsComfort  
Time TempWeatherWind HumidityBarometerVisibility
6:53 AM
Tue, May 5
51 °FClear.6 mph59%30.20 "Hg10 mi
5:53 AM51 °FClear.8 mph48%30.19 "Hg10 mi
4:53 AM53 °FClear.3 mph38%30.19 "Hg10 mi
3:53 AM52 °FClear.No wind40%30.19 "Hg10 mi
2:53 AM54 °FClear.3 mph38%30.19 "Hg10 mi
1:53 AM52 °FClear.No wind45%30.20 "Hg10 mi
12:53 AM57 °FClear.No wind34%30.20 "Hg10 mi
11:53 PM
Mon, May 4
58 °FClear.No wind35%30.18 "Hg10 mi
10:53 PM58 °FClear.3 mph39%30.19 "Hg10 mi
9:53 PM60 °FClear.No wind46%30.18 "Hg10 mi
8:53 PM64 °FSunny.3 mph33%30.16 "Hg10 mi
7:53 PM67 °FSunny.3 mph24%30.16 "Hg10 mi
6:53 PM69 °FSunny.6 mph25%30.16 "Hg10 mi
5:53 PM69 °FSunny.7 mph21%30.16 "Hg10 mi
4:53 PM69 °FSunny.12 mph21%30.15 "Hg10 mi
3:53 PM70 °FSunny.10 mph22%30.16 "Hg10 mi
2:53 PM70 °FSunny.5 mph25%30.17 "Hg10 mi
1:53 PM68 °FSunny.9 mph25%30.18 "Hg10 mi
12:53 PM66 °FSunny.9 mph28%30.19 "Hg10 mi
11:53 AMN/ASunny.16 mphN/A30.19 "Hg10 mi
10:53 AM64 °FSunny.10 mph33%30.19 "Hg10 mi
9:53 AM62 °FSunny.12 mph37%30.16 "HgN/A
8:53 AM57 °FSunny.8 mph46%30.15 "Hg10 mi
Weather by CustomWeather, © 2015

See weather overviewHow to use our weather pages